Location: Coll
(42.4728°N, 0.7714°E)
Time: 07:32:26
(UTC+00:00)

Cosmos 1025 Rocket - Pass Details

Date: 23 October 2020
Orbit: 593 x 619 km, 82.5° (Epoch: 23 November)

Event Time Altitude Azimuth Distance (km) Brightness Sun altitude
Exits shadow 05:08:09 21° 262° (W) 1,381 4.2 -13.8°
Maximum altitude 05:09:23 24° 287° (WNW) 1,284 4.1 -13.6°
Drops below altitude 10° 05:12:59 10° 342° (NNW) 1,993 5.4 -13.0°
Sets 05:15:35 0° 356° (N) 2,904 6.4 -12.5°
